Regional Weather Roundup
Issued by NWS

Home | Current Version | Previous Version | Text Only | Print | Product List | Glossary On
Versions: 1 2 3 4 5 6 7 8 9 10 11 12 13 14 15 16 17 18 19 20 21 22 23 24 25 26 27 28 29 30 31 32 33 34 35 36 37 38 39 40 41 42 43 44 45 46 47 48 49 50
000
ASUS45 KTFX 232104
RWRMT
MONTANA HOURLY WEATHER ROUNDUP
NATIONAL WEATHER SERVICE GREAT FALLS MT
304 PM MDT WED APR 23 2014

NOTE: "FAIR" INDICATES FEW OR NO CLOUDS BELOW 12000 FEET WITH NO
SIGNIFICANT WEATHER AND/OR OBSTRUCTIONS TO VISIBILITY.

* THESE STATIONS ARE NOT UNDER NWS QUALITY CONTROL. THEY DO NOT
   REPORT WEATHER SUCH AS PRECIPITATION OR FOG.

MTZ001>007-043-232200-
WEST OF THE DIVIDE
CITY           SKY/WX    TMP DP  RH WIND       PRES   REMARKS
KALISPELL      PTSUNNY   48  28  46 W12       29.72S
MISSOULA       PTSUNNY   50  27  41 W17G30    29.82F
BUTTE          CLOUDY    39  21  48 W14G21    29.82R WCI  31
MULLAN PASS    SNOW      27  25  92 VRB6      29.77S VSB 1/2  WCI  20
* ESSEX        N/A       41  25  53 SE6G17     N/A
* LINCOLN      N/A       43  24  47 S11G26     N/A
* LOOKOUT PASS N/A       32  30  92 E6         N/A   WCI  26
* POLSON       N/A       50  33  52 SW5G17     N/A
* RONAN APT    PTSUNNY   45  30  56 S6         N/A
* SEELEY LAKE  N/A       41  30  65 E3G9       N/A
* THOMP F APT  PTSUNNY   39  22  51 SW3G17     N/A
$$

MTZ008-052>055-232200-
SOUTHWEST MONTANA
CITY           SKY/WX    TMP DP  RH WIND       PRES   REMARKS
BOZEMAN        PTSUNNY   46  21  37 SW21G30   29.80F
DILLON         LGT RAIN  41  21  45 W25G30    29.83R
W YELLOWSTONE  N/A       43  23  45 SW5G17     N/A
* THREE FORKS  PTCLDY    48  25  41 SW14G26    N/A
* BOULDER HILL N/A       39  18  43 S22G29     N/A   WCI  29
* MONIDA PASS  N/A       35  12  38 SW4G9      N/A
* RAYNOLDS PAS N/A       35  23  62 SW12G20    N/A   WCI  27
* WHITEHALL    N/A       47  21  36 SW14G24    N/A
* WISE RIVER   N/A       41  19  41 W21G33     N/A
$$

MTZ009>010-012-014-046-048-049-054-232200-
EAST SLOPES AND CENTRAL MONTANA
CITY           SKY/WX    TMP DP  RH WIND       PRES   REMARKS
CUT BANK       SUNNY     52  21  30 W33G48    29.59S
GREAT FALLS    PTCLDY    48  21  34 SW24G36   29.66S
HELENA         PTSUNNY   43  30  60 SW7       29.76R
MALMSTROM AFB  PTCLDY    54  19  25 SW22G37   29.64S
* CONRAD       SUNNY     54  19  25 N/A        N/A
* DEARBORN     N/A       49  22  35 S22G31     N/A
* EAST GLACIER N/A       37  28  70 W23G33     N/A   WCI  26
* MONARCH      N/A       40  11  30 W22G30     N/A   WCI  30
* PENDROY      N/A       48  16  28 W40G47     N/A
* ROGERS PASS  N/A       38  22  53 SE6G21     N/A   WCI  33
* SAINT MARY   N/A       38  26  62 S10G24     N/A   WCI  31
* SWEET GRASS  N/A       51  14  23 S35G44     N/A
$$

MTZ011-013-016-021-035-040-045-047-050-051-232200-
NORTH CENTRAL MONTANA
CITY           SKY/WX    TMP DP  RH WIND       PRES   REMARKS
HAVRE          PTCLDY    55  19  24 W25G37    29.56R
LEWISTOWN      PTSUNNY   50  19  29 W24G37    29.67R
* CHESTER      N/A       52  19  27 W23G40     N/A
* DENTON       N/A       53  16  23 W35G44     N/A
* GEYSER       N/A       50  16  26 SW32G39    N/A
* JUDITH GAP   N/A       48  13  24 W35G43     N/A
* LOMA         N/A       55  18  23 SW22G33    N/A
$$

MTZ017>020-022>027-061-062-232200-
NORTHEAST MONTANA
CITY           SKY/WX    TMP DP  RH WIND       PRES   REMARKS
GLASGOW        CLOUDY    57  25  29 W25G39    29.55R
GLENDIVE       PTCLDY    57  30  36 W23G31    29.59S
JORDAN         CLOUDY    57  19  23 W21G30    29.61S
SIDNEY         CLOUDY    50  43  77 W14       29.57R
WOLF POINT     CLOUDY    59  27  29 W26G33    29.55F
* BEAVER HILL  N/A       50  33  52 SW26G33    N/A
* CIRCLE       N/A       54  26  34 SW21G28    N/A
* LINDSAY DVD  N/A       52  25  35 W28G35     N/A
* NAVAJO       N/A       43  39  86 W20        N/A
* SACO         N/A       57  24  28 SW29G34    N/A
$$

MTZ028>042-056>058-232200-
SOUTHCENTRAL AND SOUTHEAST MONTANA
CITY           SKY/WX    TMP DP  RH WIND       PRES   REMARKS
BAKER          CLOUDY    52  34  50 NW26G40   29.62S
BILLINGS       PTCLDY    55  16  21 W31G43    29.71S
LIVINGSTON     PTCLDY    48  21  34 W26G36    29.77R
MILES CITY     PTSUNNY   55  37  51 W25G33    29.66S
* LAUREL APT   PTCLDY    54  19  25 SW23G33    N/A
* ROUNDUP APT  PTCLDY    55  16  21 W22G31     N/A
* HYSHAM       N/A       53  20  27 W20G26     N/A
* LAME DEER    N/A       47  28  48 W13G27     N/A
* REED POINT   N/A       52  23  32 W33G43     N/A
* ROSCOE HILL  N/A       51   5  15 S4G20      N/A
$$

REGIONAL REPORTS...DAKOTAS
CITY           SKY/WX    TMP DP  RH WIND       PRES   REMARKS
WILLISTON      LGT RAIN  46  43  89 W18G25    29.53R
DICKINSON      CLOUDY    48  37  66 W32G43    29.56R
CROSBY         CLOUDY    46  46 100 E13       29.50R
TIOGA          CLOUDY    48  41  77 SE16G25   29.53R
WATFORD CITY   CLOUDY    45  41  86 W20       29.55R
BISMARCK       CLOUDY    55  45  69 S14       29.56R
GRAND FORKS    LGT RAIN  45  39  80 SE21G33   29.86S
FARGO          LGT RAIN  45  37  74 SE25G39   29.83F
BUFFALO SD     SUNNY     54  36  51 NW24G35   29.59R
RAPID CITY     PTSUNNY   54  39  57 N35G48    29.61R
$$

REGIONAL REPORTS...WYOMING/IDAHO/WASHINGTON
CITY           SKY/WX    TMP DP  RH WIND       PRES   REMARKS
GILLETTE       PTCLDY    48  34  59 NW17G26   29.72S
SHERIDAN       PTSUNNY   52  27  38 NW22G31   29.71S
CODY           PTCLDY    46  19  34 W22G30    29.79R
YELLOWSTONE LA PTCLDY    32  10  40 W9        29.89R WCI  24
SALMON         PTSUNNY   46  21  37 SW15G22   29.86S
MULLAN PASS    SNOW      27  25  92 VRB6      29.77S VSB 1/2  WCI  20
SPOKANE        PTSUNNY   50  27  41 SW21G30   29.81S

$$




USA.gov is the U.S. government's official web portal to all federal, state and local government web resources and services.